Location: Mascot Post Office (historical)
(40.2645°N, 99.5462°W)
Time: 02:45:39
(UTC+00:00)

Cosmos 2181 Rocket - Pass Details

Date: 14 July 2020
Orbit: 951 x 1016 km, 82.9° (Epoch: 14 August)

Event Time Altitude Azimuth Distance (km) Brightness Sun altitude
Rises 02:47:05 0° 358° (N) 3,702 7.6 -7.2°
Reaches altitude 10° 02:49:45 10° 4° (N) 2,740 6.8 -7.6°
Maximum altitude 02:55:46 47° 78° (ENE) 1,268 4.4 -8.5°
Drops below altitude 10° 03:01:39 10° 151° (SSE) 2,685 5.7 -9.4°
Enters shadow 03:01:56 - 152° (SSE) 2,785 5.8 -9.4°
